Temp
45 45 45 46 46 46 46 46 46 48 48 48 48 47 46 46 47 46 46 47 45 45 45 45 44 46 45 45 46 46 45 46 43 40 45 42 40 40 38 38 38 39 41
44 44 43 44 44 44 44 45 45 44 46 45 46 45 45 45 45 44 44 45 44 43 44 43 44 42 43 43 42 41 42 43 44 35 37 37 38 39 39 37 36 36 37
42 42 42 41 41 41 42 42 43 44 43 44 42 42 42 43 43 43 43 44 44 43 43 40 41 40 39 39 39 38 39 38 41 40 34 37 36 37 34 35 35 35 36
40 40 39 39 39 39 39 39 39 40 40 41 41 41 42 42 41 41 40 42 43 42 43 41 41 39 39 37 37 37 36 35 37 36 36 33 34 34 33 32 31 33 35
38 38 38 38 39 38 37 37 37 37 37 38 38 38 38 39 39 39 39 39 40 40 40 40 39 39 39 39 37 36 34 34 33 33 33 32 31 29 29 32 31 33 34
35 35 36 36 34 34 35 34 35 35 35 35 34 35 36 37 39 40 39 37 37 38 37 38 38 37 36 39 39 39 36 32 31 32 31 30 31 31 32 31 31 29 30
33 33 32 32 30 31 33 33 34 34 35 34 33 34 34 36 39 39 39 37 36 37 37 38 36 37 35 36 38 38 37 38 38 34 31 32 31 33 33 30 29 29 30
30 30 31 30 28 29 31 30 31 34 33 34 34 34 34 35 38 39 38 37 37 38 38 37 37 35 34 35 34 33 33 34 35 34 35 34 35 34 33 32 30 30 31
30 30 30 28 26 26 25 27 29 30 31 31 32 32 32 33 36 37 37 35 35 35 36 37 37 36 35 36 33 32 31 31 35 35 35 35 35 34 33 29 25 24 23
30 30 29 27 24 22 24 24 26 27 28 31 30 32 32 31 34 36 36 35 33 34 34 34 34 35 36 35 33 31 28 29 29 29 30 32 33 32 32 30 28 23 23
29 28 26 25 22 22 22 23 22 23 25 26 28 30 31 32 32 34 35 34 34 33 33 32 33 35 36 35 36 31 31 31 29 27 28 28 28 29 29 29 29 26 22
26 24 22 21 20 20 18 18 19 20 21 22 25 28 31 32 32 32 34 35 35 33 33 32 32 33 35 34 35 32 34 31 28 27 26 25 24 23 25 26 27 27 27
19 17 17 17 17 17 15 16 17 18 19 21 24 27 29 31 32 32 33 34 33 33 34 32 33 32 34 33 33 32 30 27 26 24 24 24 25 24 24 24 25 25 25
13 13 14 13 13 14 15 16 15 16 17 20 22 25 27 29 30 30 29 29 30 31 34 30 29 29 30 30 29 31 28 26 26 24 24 24 23 21 20 21 19 18 17
8 9 9 10 9 10 12 13 14 16 17 16 19 21 23 24 28 31 28 26 27 29 29 27 26 26 26 27 27 26 26 24 23 24 21 19 18 18 18 19 18 17 14
3 5 6 6 6 7 7 8 14 16 18 21 23 23 24 28 31 31 32 30 31 30 26 24 24 24 25 26 27 24 23 22 23 21 19 18 16 16 16 16 17 15 14
2 3 4 4 5 4 5 5 4 10 15 18 21 23 25 27 30 32 31 32 31 30 25 24 24 24 25 26 27 22 21 21 20 19 17 17 16 16 15 15 15 14 13
3 3 3 3 4 4 4 4 5 5 5 8 16 18 22 26 29 31 32 31 27 28 27 24 23 24 25 25 21 19 19 17 17 16 15 15 14 14 13 13 13 12 12
3 4 4 4 4 4 4 4 5 5 5 7 10 14 18 24 27 29 30 28 26 26 27 24 24 24 22 21 20 18 17 16 16 15 14 13 13 13 12 12 12 11 11
5 5 5 5 5 5 5 5 5 6 6 7 9 12 16 22 21 23 28 28 27 27 25 24 22 20 20 19 18 16 15 13 13 12 11 11 10 11 10 10 11 11 10
5 6 6 6 6 6 6 6 6 6 7 8 11 15 22 21 21 23 26 27 26 25 21 19 18 18 17 16 14 13 12 11 10 9 9 9 8 8 11 11 11 9 9
6 6 6 6 7 8 9 11 11 10 9 10 13 19 22 21 22 23 19 18 19 19 18 17 15 14 13 12 12 11 9 8 8 8 8 7 7 8 8 9 8 9 9
5 5 6 7 8 9 11 12 12 14 14 15 14 14 14 13 12 12 11 12 12 12 12 12 10 9 10 11 11 11 9 8 8 8 7 6 6 6 7 8 7 6 7
4 4 5 5 6 7 7 7 8 8 8 7 7 6 6 6 5 5 6 7 7 8 9 8 8 7 6 7 8 9 8 7 7 7 7 6 5 5 6 5 6 6 7
2 2 3 3 3 3 4 5 5 6 5 5 5 4 4 4 3 3 4 5 5 5 5 6 6 5 4 3 3 3 5 4 3 3 2 4 4 3 3 3 5 6 6
1 1 1 2 2 2 2 2 2 3 3 3 3 3 3 3 3 3 3 3 3 3 3 3 3 2 2 2 1 0 2 3 -1 -0 0 1 1 2 2 2 3 4 7
MSLP
1014.44 1014.41 1013.99 1013.52 1012.98 1012.71 1011.95 1011.58 1011.62 1011.58 1011.18 1010.84 1010.92 1010.93 1011.04 1011.43 1012.08 1011.97 1012.04 1012.52 1012.53 1012.64 1013.01 1013.33 1013.71 1014.74 1014.98 1015.38 1015.67 1015.84 1016.25 1016.64 1017.49 1019.21 1019.46 1020.48 1021.49 1021.86 1022.59 1022.98 1023.15 1023.22 1022.97
1015.01 1014.84 1014.42 1013.78 1013.70 1013.09 1012.54 1012.11 1011.49 1011.31 1011.21 1011.05 1010.64 1010.60 1010.58 1010.50 1010.99 1011.39 1011.50 1011.53 1012.13 1012.21 1012.21 1013.01 1012.82 1013.68 1014.32 1014.79 1015.14 1015.17 1015.60 1015.93 1016.70 1018.21 1019.52 1020.17 1020.59 1021.23 1021.51 1022.23 1022.62 1022.85 1022.76
1015.23 1014.80 1014.49 1014.37 1014.00 1013.70 1013.01 1012.20 1011.72 1011.26 1011.11 1010.70 1010.66 1010.08 1010.04 1010.30 1010.05 1010.40 1010.63 1010.94 1011.01 1011.62 1011.72 1011.97 1012.17 1013.04 1013.67 1013.87 1014.51 1014.80 1015.23 1015.83 1015.91 1017.17 1018.53 1019.65 1020.32 1020.99 1021.46 1022.02 1022.32 1022.37 1022.25
1015.82 1015.36 1014.82 1014.32 1014.15 1013.89 1013.31 1012.97 1012.05 1011.69 1011.18 1010.58 1010.16 1009.87 1009.52 1009.41 1009.50 1009.70 1010.23 1010.29 1010.33 1010.47 1010.98 1011.12 1011.32 1011.66 1012.21 1013.19 1013.65 1014.63 1014.73 1015.81 1016.12 1016.27 1017.63 1018.79 1019.62 1020.42 1020.69 1020.84 1021.80 1022.07 1021.40
1015.82 1015.28 1015.07 1014.63 1014.28 1013.77 1013.44 1013.39 1012.85 1011.85 1011.14 1010.56 1010.06 1009.59 1009.18 1008.77 1008.85 1009.29 1009.41 1009.59 1009.78 1009.80 1009.72 1009.91 1010.06 1010.52 1010.74 1011.24 1012.34 1013.43 1014.49 1014.99 1016.07 1016.07 1016.87 1017.83 1018.44 1019.38 1019.72 1019.65 1020.21 1020.81 1020.88
1015.60 1015.21 1014.88 1014.90 1014.45 1013.97 1013.38 1013.00 1012.45 1011.67 1010.81 1010.18 1009.93 1009.50 1008.74 1008.22 1008.10 1008.34 1008.65 1008.49 1008.73 1008.67 1008.55 1008.87 1009.24 1009.12 1009.90 1009.64 1010.50 1011.13 1012.04 1013.09 1014.62 1015.08 1015.55 1016.22 1016.73 1017.57 1018.28 1018.88 1019.36 1019.97 1019.94
1015.97 1015.37 1015.04 1014.87 1014.49 1013.77 1013.27 1012.70 1012.04 1011.28 1010.51 1009.82 1009.20 1008.85 1008.37 1007.41 1007.29 1007.26 1007.61 1007.74 1007.52 1007.20 1007.21 1007.35 1007.82 1008.04 1009.13 1009.20 1009.83 1010.06 1011.01 1011.39 1011.79 1012.85 1013.31 1013.77 1015.23 1015.81 1016.93 1018.07 1018.61 1019.00 1019.49
1015.63 1015.30 1014.96 1014.57 1014.10 1013.74 1013.29 1012.91 1011.96 1011.25 1010.33 1009.47 1008.89 1008.06 1007.38 1006.94 1006.90 1006.61 1006.64 1006.66 1006.69 1006.19 1005.41 1005.89 1006.30 1006.82 1007.38 1008.08 1009.17 1009.68 1009.96 1010.73 1011.33 1012.38 1012.17 1012.57 1013.92 1015.17 1015.96 1016.77 1017.92 1018.70 1019.42
1015.30 1015.01 1014.63 1014.39 1014.06 1013.62 1012.91 1012.10 1011.29 1010.73 1009.65 1008.71 1007.96 1007.25 1006.43 1005.83 1006.09 1005.94 1005.76 1005.45 1005.13 1004.63 1004.46 1004.64 1005.21 1005.41 1006.18 1007.42 1007.76 1008.52 1009.06 1009.64 1010.71 1012.16 1012.35 1012.13 1013.80 1014.79 1015.46 1016.47 1017.81 1018.57 1019.34
1014.57 1014.27 1014.18 1014.21 1013.98 1013.50 1012.82 1012.01 1011.00 1010.22 1008.93 1007.78 1006.93 1006.39 1005.85 1005.18 1005.01 1004.70 1004.50 1004.26 1003.85 1003.27 1003.41 1003.71 1003.94 1004.03 1004.90 1005.95 1006.92 1007.71 1008.09 1008.33 1009.75 1011.44 1012.22 1012.33 1013.12 1014.56 1015.21 1015.81 1016.87 1017.80 1018.63
1014.12 1013.81 1013.54 1013.36 1013.13 1012.88 1012.22 1011.36 1010.54 1009.58 1008.57 1007.42 1006.43 1005.53 1005.12 1004.50 1003.85 1003.76 1003.25 1003.09 1002.78 1002.47 1002.11 1002.18 1003.07 1003.44 1004.14 1004.77 1006.00 1006.63 1006.30 1007.75 1008.97 1009.82 1011.13 1012.00 1012.53 1013.58 1014.51 1015.49 1016.14 1017.21 1018.09
1013.72 1013.38 1013.04 1012.79 1012.52 1011.98 1011.46 1010.64 1010.03 1009.29 1008.17 1006.70 1005.73 1004.32 1003.48 1002.84 1002.64 1002.36 1001.85 1001.51 1001.70 1001.56 1001.04 1001.12 1001.70 1002.39 1003.69 1004.07 1004.76 1006.14 1006.65 1007.53 1008.30 1008.75 1009.73 1011.11 1011.61 1012.77 1014.26 1014.89 1016.20 1016.67 1017.35
1013.40 1012.90 1012.66 1012.32 1011.80 1011.31 1010.63 1009.71 1009.06 1008.30 1007.31 1005.80 1004.73 1003.34 1002.05 1001.56 1001.15 1001.00 1000.87 1000.81 1000.82 1000.71 999.98 999.80 1000.61 1001.71 1002.69 1003.14 1003.63 1004.26 1005.81 1006.67 1006.90 1007.50 1008.47 1009.98 1010.64 1012.20 1013.49 1014.70 1016.05 1016.58 1017.39
1013.23 1012.53 1012.02 1011.47 1010.77 1010.36 1009.77 1008.92 1007.94 1006.94 1005.97 1004.93 1003.69 1002.29 1001.26 1000.69 1000.15 1000.05 1000.09 1000.01 999.89 999.67 998.68 999.22 1000.17 1001.39 1001.94 1002.45 1002.68 1002.88 1004.06 1004.90 1005.42 1006.47 1008.33 1009.43 1010.65 1012.18 1012.46 1014.46 1015.35 1016.38 1017.25
1013.31 1012.49 1011.77 1011.13 1010.34 1009.38 1008.66 1007.85 1006.94 1005.90 1005.32 1004.11 1002.85 1002.03 1000.83 999.51 998.96 999.04 999.13 999.00 998.82 998.52 998.75 999.17 999.51 1000.15 1000.58 1001.49 1001.00 1001.69 1004.03 1003.78 1004.82 1006.41 1007.78 1009.05 1010.51 1011.02 1012.67 1014.03 1014.80 1016.05 1016.67
1013.35 1012.51 1011.66 1010.79 1009.80 1008.78 1007.59 1006.25 1005.90 1004.77 1003.71 1002.62 1001.47 1000.78 999.50 998.48 997.82 997.68 997.66 997.82 997.85 997.81 998.10 998.12 998.51 998.87 998.90 1000.03 1000.59 1000.82 1002.85 1003.74 1004.64 1005.96 1007.28 1008.12 1009.65 1010.99 1012.12 1013.14 1014.36 1015.40 1016.02
1012.92 1011.96 1011.01 1010.15 1009.07 1007.97 1006.88 1005.67 1004.02 1003.35 1002.61 1001.31 1000.17 999.25 998.20 997.00 996.33 995.92 995.93 996.20 996.45 996.72 996.53 996.86 997.09 997.51 998.02 999.00 1000.21 1000.30 1001.87 1003.62 1004.46 1005.43 1006.56 1007.72 1009.11 1010.45 1011.63 1012.81 1013.97 1014.85 1015.30
1011.93 1010.93 1009.97 1008.94 1008.03 1007.04 1005.99 1004.85 1003.78 1002.60 1001.24 1000.14 999.54 998.60 997.05 995.65 994.84 994.60 994.54 994.95 995.11 995.08 994.96 995.98 996.26 996.90 997.43 998.55 1000.25 1001.25 1002.26 1003.37 1004.37 1005.42 1006.51 1007.53 1008.70 1009.94 1011.21 1012.42 1013.53 1014.22 1014.83
1010.69 1009.52 1008.57 1007.58 1006.66 1005.70 1004.75 1003.72 1002.60 1001.51 1000.49 999.26 998.47 997.40 996.27 995.02 994.09 993.73 993.44 993.17 993.78 993.99 994.02 995.11 995.82 996.27 997.26 998.67 999.98 1001.18 1002.14 1003.03 1004.07 1005.51 1006.61 1007.58 1008.65 1009.78 1011.17 1012.48 1013.39 1014.03 1014.54
1009.26 1008.18 1007.25 1006.21 1005.12 1004.14 1003.18 1002.19 1001.13 1000.19 999.36 998.34 997.31 996.17 995.18 994.06 993.55 992.93 991.95 992.12 992.90 993.36 993.59 994.40 995.47 996.68 997.60 998.96 1000.24 1001.45 1002.37 1003.27 1004.31 1005.51 1006.79 1007.98 1009.18 1010.19 1011.14 1012.29 1013.05 1013.49 1014.00
1008.27 1007.01 1005.99 1004.97 1003.83 1002.71 1001.60 1000.51 999.66 998.97 998.16 997.28 996.29 995.24 994.01 993.40 992.87 992.40 991.72 991.71 992.47 993.16 993.94 994.95 995.95 997.21 998.13 999.47 1000.67 1001.56 1002.65 1003.45 1004.77 1005.89 1007.13 1008.38 1009.28 1010.46 1011.26 1012.19 1012.45 1013.13 1013.66
1007.33 1006.22 1005.15 1003.97 1002.72 1001.41 1000.08 998.82 997.84 997.32 996.92 996.24 995.21 994.05 993.49 993.10 992.58 992.27 992.47 992.89 993.53 994.28 995.08 995.72 996.72 997.68 998.68 999.91 1000.81 1001.84 1002.97 1003.90 1005.08 1006.28 1007.53 1008.68 1009.59 1010.38 1011.35 1012.00 1012.32 1012.60 1012.99
1007.05 1005.95 1004.75 1003.51 1002.32 1001.02 999.64 998.48 997.52 996.63 996.02 995.43 995.03 994.55 994.18 994.05 994.01 993.92 994.23 994.58 995.06 995.61 996.43 996.98 997.81 998.92 999.92 1000.73 1001.58 1002.18 1003.01 1004.06 1005.12 1006.15 1007.30 1008.51 1009.48 1010.32 1010.97 1011.32 1011.90 1012.25 1012.29
1007.16 1006.06 1004.92 1003.75 1002.65 1001.53 1000.43 999.43 998.59 997.89 997.30 996.87 996.52 996.25 996.00 995.87 995.86 995.95 996.02 996.40 996.82 997.32 997.89 998.36 999.24 999.93 1000.83 1001.72 1002.35 1002.97 1003.78 1004.71 1005.57 1006.52 1007.46 1008.45 1009.17 1009.79 1010.85 1011.20 1011.46 1011.47 1011.54
1007.63 1006.56 1005.48 1004.46 1003.49 1002.54 1001.54 1000.67 999.92 999.24 998.73 998.32 998.04 997.81 997.65 997.55 997.58 997.62 997.76 998.12 998.47 998.86 999.44 1000.00 1000.62 1001.29 1001.89 1002.51 1003.29 1004.07 1004.63 1005.46 1006.35 1007.06 1007.90 1008.66 1009.17 1010.00 1010.33 1010.55 1010.83 1011.17 1011.18
1008.39 1007.48 1006.50 1005.46 1004.46 1003.64 1002.86 1002.13 1001.49 1000.86 1000.27 999.95 999.71 999.48 999.34 999.23 999.18 999.21 999.45 999.79 1000.08 1000.44 1000.90 1001.53 1002.18 1002.59 1002.97 1003.64 1004.32 1005.04 1005.51 1005.96 1006.94 1007.70 1008.31 1008.84 1009.20 1009.33 1009.76 1010.33 1010.57 1010.59 1010.29
Wind_Speed
15 14 15 14 14 13 10 10 11 12 11 13 13 14 15 16 16 16 17 16 18 18 16 16 17 13 10 9 9 9 8 7 6 4 7 9 13 11 8 7 5 7 5
13 12 13 13 14 14 13 13 11 11 11 12 12 13 13 15 16 17 18 16 18 19 18 17 17 11 14 12 9 11 10 10 6 9 9 9 10 11 9 9 7 6 7
14 14 13 14 14 15 15 15 14 12 12 12 12 12 12 14 15 16 18 19 18 18 17 18 18 16 16 11 12 10 9 7 9 6 6 7 5 8 9 8 8 9 7
13 13 13 13 13 14 14 15 14 13 12 12 11 12 13 13 14 14 15 18 18 17 18 18 18 19 19 16 14 13 10 9 8 8 7 8 8 7 8 8 8 8 7
11 11 12 12 12 12 12 12 12 12 11 11 11 11 12 12 10 14 15 16 18 18 18 18 19 20 26 22 14 14 13 10 9 8 8 7 9 7 11 7 7 5 5
11 12 12 11 11 12 12 12 12 11 10 9 10 12 13 10 18 22 20 15 17 19 19 18 18 21 24 30 30 29 24 19 15 11 10 11 11 8 8 7 6 4 3
12 11 10 9 10 12 12 13 14 13 13 12 10 10 14 13 20 23 24 17 16 19 20 19 17 15 20 20 28 27 29 31 27 19 18 14 12 11 11 10 8 6 4
11 11 10 11 12 14 12 13 13 13 13 13 13 12 12 11 21 23 24 18 19 21 20 20 19 20 20 22 20 20 19 20 20 13 14 11 9 11 10 8 8 6 5
13 12 11 10 13 15 15 16 14 13 13 13 12 14 14 14 19 23 21 16 19 22 17 18 20 19 23 32 21 22 18 16 21 22 16 17 17 19 14 9 7 7 5
13 13 11 10 11 13 15 16 16 14 16 13 15 14 17 18 21 23 20 12 17 14 16 17 25 22 27 34 23 20 19 18 17 15 12 16 18 15 19 11 9 8 6
13 13 13 13 12 13 15 14 15 15 16 16 16 15 16 16 17 25 25 15 14 14 14 13 12 29 30 32 33 19 22 17 23 16 12 10 11 11 9 9 9 9 8
13 14 14 14 12 13 15 15 16 15 16 17 16 16 12 14 19 23 27 28 25 16 15 11 11 24 31 30 29 27 28 24 13 13 13 12 12 9 9 8 9 9 8
16 16 15 16 16 15 16 16 14 14 14 15 13 14 14 11 11 23 27 28 29 22 13 16 20 24 29 29 36 33 27 14 14 13 14 13 10 10 11 10 9 7 8
20 20 18 17 18 16 13 13 13 13 13 13 14 14 13 12 12 9 10 11 21 20 19 13 18 21 24 23 20 22 15 13 12 12 12 10 10 10 9 9 8 7 6
20 20 19 16 17 16 15 13 13 15 16 14 14 14 14 14 12 15 14 10 10 14 10 10 11 13 13 14 13 13 12 12 12 12 11 11 10 9 9 8 7 7 5
18 15 14 14 14 14 15 15 24 31 35 36 38 29 17 32 34 30 26 23 27 24 12 12 12 13 13 14 13 14 12 14 12 12 11 11 10 10 10 9 7 7 7
18 18 14 15 14 14 14 15 16 16 30 32 33 34 35 35 36 30 28 25 25 22 13 12 12 12 12 13 12 11 12 12 13 11 12 11 11 9 11 9 8 8 6
18 22 15 14 14 14 14 15 14 15 15 13 19 24 30 31 29 27 27 22 12 16 11 12 11 11 11 11 10 10 10 11 10 10 10 10 10 9 9 8 8 7 6
16 14 14 14 14 16 15 15 15 15 15 14 13 19 20 29 24 25 29 12 11 10 10 12 10 9 10 10 11 10 12 11 11 10 9 9 9 9 8 8 7 8 6
15 20 18 13 14 14 13 14 13 13 13 13 12 12 12 11 9 10 11 11 9 8 8 10 8 9 10 9 9 9 10 10 11 10 9 9 8 7 8 8 6 6 6
12 13 18 14 13 13 13 13 13 12 12 11 12 13 21 10 9 9 7 7 7 4 8 10 10 9 9 9 9 10 10 10 10 10 9 8 8 7 6 6 6 5 4
11 12 12 12 12 12 12 12 12 11 11 11 11 10 17 8 8 3 6 8 8 8 8 10 9 8 9 10 10 10 11 11 11 10 9 8 8 7 7 6 5 5 5
11 12 11 10 11 14 10 10 10 8 7 6 7 5 4 4 5 6 7 7 7 7 7 8 9 9 8 8 8 9 11 10 10 10 10 9 8 8 7 6 6 5 5
11 11 11 10 9 10 10 10 9 10 9 8 7 7 7 6 7 8 8 8 8 8 7 8 8 11 11 9 8 8 8 8 8 8 11 8 8 8 6 5 5 5 5
10 10 10 9 9 10 10 10 10 10 9 9 8 8 7 8 8 8 8 8 8 9 10 9 8 13 13 14 12 12 12 13 9 10 6 7 7 8 6 4 4 5 8
11 11 9 9 9 9 9 9 10 10 9 9 9 8 8 8 9 9 9 9 9 9 10 8 10 14 14 11 11 12 11 12 9 9 7 6 6 5 4 6 9 7 9
Wind_Direction
10 0 359 359 0 352 337 312 286 279 263 247 237 224 219 218 221 218 219 219 214 209 205 204 205 202 201 196 195 191 192 184 174 163 185 176 188 192 202 215 235 248 251
3 359 357 358 354 355 355 342 323 293 277 258 247 235 227 219 218 221 224 218 220 218 210 213 208 195 204 198 195 191 193 183 173 164 182 185 196 203 201 209 216 236 245
354 355 354 355 353 347 345 345 340 319 294 273 257 242 234 232 222 223 225 226 222 224 217 210 208 199 204 194 194 196 192 183 178 172 157 183 188 196 202 212 218 227 228
346 345 346 349 345 340 340 336 336 326 305 286 265 255 248 238 232 229 228 230 227 223 223 216 210 205 204 197 194 201 183 184 188 172 173 173 188 183 199 195 203 221 220
342 342 341 339 341 335 332 328 323 320 310 299 279 262 254 244 236 231 229 230 233 228 223 217 213 213 206 196 191 189 186 181 188 186 187 181 186 176 203 183 203 213 241
334 332 331 328 333 330 324 323 321 319 318 306 287 275 261 248 242 239 234 225 229 228 224 224 222 208 208 198 198 192 187 180 190 191 189 202 195 188 178 185 181 193 234
311 312 315 316 316 323 315 321 321 320 317 308 293 274 273 265 258 249 240 236 232 227 225 221 216 213 211 206 203 196 198 197 193 189 191 190 190 182 172 178 185 189 207
298 301 305 313 312 315 303 308 308 311 310 308 299 289 275 267 265 254 245 239 236 236 226 225 220 214 206 200 197 198 197 199 200 200 199 176 174 169 177 171 175 195 242
278 283 291 304 305 309 307 306 308 301 300 297 296 293 284 277 266 263 253 240 240 238 236 228 225 220 212 206 197 200 195 197 198 197 188 167 163 169 163 147 171 170 220
280 277 281 281 283 288 295 298 298 297 296 295 290 287 281 276 270 266 259 249 246 240 233 234 226 216 207 205 205 200 199 189 177 177 180 173 171 176 176 175 172 185 192
280 278 277 283 282 284 286 289 294 293 291 288 283 279 273 265 263 258 254 250 246 242 234 223 224 222 216 206 207 206 205 175 179 171 172 172 168 176 176 175 174 188 198
286 277 280 285 286 287 284 283 283 281 279 280 282 277 270 266 256 253 249 243 249 243 237 220 216 213 217 210 208 208 206 178 176 174 170 175 168 159 169 158 182 189 207
297 288 285 285 283 280 278 278 278 275 270 272 273 271 272 271 261 255 253 249 247 250 241 217 207 207 215 210 211 196 198 184 179 176 179 179 168 154 152 153 177 184 218
297 293 294 291 289 285 279 274 270 268 268 266 265 265 268 265 261 251 246 246 253 253 248 205 194 201 203 206 206 194 190 179 181 173 174 160 143 155 140 164 166 174 206
297 297 295 291 288 287 277 275 270 267 267 271 267 273 273 265 259 259 246 242 241 236 216 189 189 194 197 207 195 177 188 169 166 166 157 152 148 140 155 161 153 169 204
296 295 293 293 288 284 283 280 270 274 274 270 268 262 263 262 264 262 260 251 250 244 197 191 194 194 191 194 198 171 173 165 163 157 151 144 148 155 157 154 156 183 198
288 290 288 285 283 283 281 282 286 281 278 277 275 271 267 267 265 258 246 244 249 245 203 199 197 192 186 189 192 163 165 168 153 153 152 151 147 152 151 160 169 183 190
286 283 281 279 278 277 276 277 278 280 284 279 275 277 277 280 264 255 262 226 236 238 203 200 194 186 181 179 157 163 156 149 152 147 145 144 144 147 152 161 174 179 181
290 285 283 281 278 275 275 273 272 274 273 278 281 277 275 272 268 264 270 210 222 230 207 188 186 175 156 153 161 157 156 152 145 142 138 137 139 142 152 165 175 180 183
288 284 283 282 281 278 275 273 273 272 272 271 271 272 274 265 261 265 242 198 208 229 178 168 147 140 148 152 150 149 140 138 134 131 129 127 134 148 152 168 180 182 192
293 291 287 283 280 279 277 272 268 267 268 270 270 268 267 269 264 272 248 183 195 169 135 135 130 130 131 136 140 137 137 129 127 127 129 135 138 149 159 179 172 186 208
303 301 299 297 294 290 286 277 269 258 260 266 270 272 288 287 286 274 80 82 83 101 118 131 132 134 134 141 141 138 136 134 133 130 131 135 143 151 168 179 185 198 217
309 310 310 310 313 315 320 329 339 324 292 326 344 358 11 37 52 76 84 86 91 96 102 112 114 112 110 117 129 137 137 138 137 137 137 146 157 164 175 179 189 208 222
324 327 330 332 336 337 343 348 355 4 13 17 19 26 33 43 58 66 73 75 80 85 86 94 105 117 118 112 107 104 110 117 123 139 143 149 154 153 172 185 202 221 248
334 336 342 346 347 350 350 358 5 13 19 25 29 37 46 55 61 65 69 73 77 82 84 91 96 106 104 107 109 109 118 118 124 132 128 140 151 168 177 196 218 238 249
347 348 347 350 359 2 4 4 6 13 23 33 40 47 53 58 63 65 68 72 75 75 79 77 88 98 100 100 109 118 129 133 135 144 143 156 167 175 184 217 233 236 247